Szeged, Hungary

2:24 PM CEST on July 23, 2017 (GMT +0200)
Szeged

Weather History for LHUD - April, 2014

Change the Weather History Date:

Monday, April 7, 2014

  Actual Average (LRAR) Record (LRAR)
Temperature  
Mean Temperature 54 °F -  
Max Temperature 66 °F 65 °F 80 °F (2016)
Min Temperature 43 °F 44 °F 21 °F (2003)
Degree Days  
Heating Degree Days 10    
Growing Degree Days 4 (Base 50)    
Moisture  
Dew Point 45 °F    
Average Humidity 69    
Maximum Humidity 93    
Minimum Humidity 42    
Precipitation  
Precipitation 0.00 in 0.06 in - ()
Sea Level Pressure  
Sea Level Pressure 30.09 in    
Wind  
Wind Speed 6 mph ()    
Max Wind Speed 11 mph    
Max Gust Speed -    
Visibility 9.4 miles    
Events Fog    
Averages and records for this station are not official NWS values.
T = Trace of Precipitation, MM = Missing Value Source: Averaged Metar Reports

Daily Weather History Graph

Daily Weather History Graph

Search for Another Location

Airport or City:

Trip Planner

Search our weather history database for the weather conditions in past years. The results will help you decide how hot, cold, wet, or windy it might be!

Date:

Astronomy

Apr. 07, 2014 Rise Set
Actual Time 6:08 AM CEST 7:16 PM CEST
Civil Twilight 5:37 AM CEST 7:46 PM CEST
Nautical Twilight 5:00 AM CEST 8:23 PM CEST
Astronomical Twilight 4:21 AM CEST 9:03 PM CEST
Moon 11:38 AM CEST (4/7) 1:50 AM CEST (4/7)
Length of Visible Light 14h 09m
Length of Day
13h 07m
Waxing Crescent, 51% of the Moon is Illuminated
Apr 7
Waxing Crescent
Apr 15
Full
Apr 22
Last Quarter
Apr 29
New
May 7
First Quarter

Hourly Weather History & Observations

Time (CEST) Temp. Windchill Dew Point Humidity Pressure Visibility Wind Dir Wind Speed Gust Speed Precip Events Conditions
12:00 AM 50 °F - 42 °F 66% 30.10 in 25 mi South 6.7 mph - -   Partly Cloudy
12:45 AM 48.2 °F - 41.0 °F 76% 30.09 in 6.2 mi SSW 10.4 mph - N/A   Mostly Cloudy
1:00 AM 49 °F - 41 °F 67% 30.10 in 25 mi SSW 11.2 mph - -   Partly Cloudy
1:45 AM 48.2 °F - 41.0 °F 76% 30.09 in - South 10.4 mph - N/A   Clear
2:00 AM 48 °F - 41 °F 70% 30.09 in 25 mi South 11.2 mph - -   Partly Cloudy
2:45 AM 46.4 °F 41.9 °F 41.0 °F 81% 30.09 in - South 9.2 mph - N/A   Clear
3:00 AM 46 °F - 41 °F 77% 30.09 in 25 mi South 8.9 mph - -   Partly Cloudy
3:45 AM 46.4 °F 42.4 °F 41.0 °F 81% 30.06 in - South 8.1 mph - N/A   Clear
4:00 AM 46 °F - 41 °F 78% 30.08 in 19 mi South 8.9 mph - -   Partly Cloudy
4:45 AM 46.4 °F 43.5 °F 41.0 °F 81% 30.06 in - South 5.8 mph - N/A   Clear
5:00 AM 46 °F - 42 °F 79% 30.08 in 16 mi South 6.7 mph - -   Partly Cloudy
5:45 AM 44.6 °F 43.1 °F 41.0 °F 87% 30.06 in - SSE 3.5 mph - N/A   Clear
6:00 AM 45 °F - 42 °F 83% 30.08 in 16 mi SSE 4.5 mph - -   Partly Cloudy
6:15 AM 44.6 °F 42.2 °F 42.8 °F 93% 30.06 in - SE 4.6 mph - N/A   Clear
6:45 AM 44.6 °F 41.4 °F 41.0 °F 87% 30.06 in - SE 5.8 mph - N/A   Clear
7:00 AM 44 °F - 41 °F 86% 30.09 in 12 mi SE 4.5 mph - -   Partly Cloudy
7:15 AM 44.6 °F 42.2 °F 41.0 °F 87% 30.09 in - SE 4.6 mph - N/A   Clear
7:45 AM 46.4 °F 44.3 °F 42.8 °F 87% 30.09 in - SSE 4.6 mph - N/A   Clear
8:00 AM 46 °F - 43 °F 84% 30.09 in 12 mi SSE 4.5 mph - -   Partly Cloudy
8:15 AM 48.2 °F - 42.8 °F 82% 30.09 in - South 3.5 mph - N/A   Clear
8:45 AM 50.0 °F - 44.6 °F 82% 30.09 in - South 3.5 mph - N/A   Clear
9:00 AM 50 °F - 45 °F 76% 30.09 in 16 mi South 2.2 mph - -   Partly Cloudy
9:15 AM 53.6 °F - 46.4 °F 77% 30.09 in - NNW 2.3 mph - N/A   Clear
9:45 AM 53.6 °F - 46.4 °F 77% 30.09 in - North 4.6 mph - N/A   Clear
10:00 AM 54 °F - 46 °F 66% 30.10 in 16 mi North 4.5 mph - -   Partly Cloudy
10:15 AM 55.4 °F - 48.2 °F 77% 30.12 in 6.2 mi North 6.9 mph - N/A   Partly Cloudy
10:45 AM 57.2 °F - 46.4 °F 67% 30.12 in 6.2 mi NE 5.8 mph - N/A   Partly Cloudy
11:00 AM 56 °F - 46 °F 61% 30.12 in 16 mi NE 6.7 mph - -   Partly Cloudy
11:15 AM 59.0 °F - 48.2 °F 67% 30.12 in 6.2 mi NNE 6.9 mph - N/A   Partly Cloudy
11:45 AM 59.0 °F - 46.4 °F 63% 30.12 in 6.2 mi NNE 5.8 mph - N/A   Partly Cloudy
12:00 PM 60 °F - 47 °F 52% 30.12 in 16 mi NNE 4.5 mph - -   Partly Cloudy
12:15 PM 59.0 °F - 46.4 °F 63% 30.12 in 6.2 mi NE 6.9 mph - N/A   Partly Cloudy
12:45 PM 60.8 °F - 48.2 °F 63% 30.09 in 6.2 mi NE 4.6 mph - N/A   Partly Cloudy
1:00 PM 61 °F - 48 °F 52% 30.11 in 12 mi NE 4.5 mph - -   Partly Cloudy
1:15 PM 62.6 °F - 48.2 °F 59% 30.12 in 6.2 mi East 5.8 mph - N/A   Scattered Clouds
1:45 PM 62.6 °F - 50.0 °F 63% 30.09 in 6.2 mi NNE 3.5 mph - N/A   Partly Cloudy
2:00 PM 63 °F - 50 °F 53% 30.11 in 12 mi NNE 4.5 mph - -   Partly Cloudy
2:15 PM 64.4 °F - 48.2 °F 56% 30.09 in 6.2 mi NNW 4.6 mph - N/A   Partly Cloudy
2:45 PM 64.4 °F - 50.0 °F 59% 30.09 in 6.2 mi NNE 6.9 mph - N/A   Scattered Clouds
3:00 PM 65 °F - 49 °F 46% 30.09 in 12 mi NNE 6.7 mph - -   Partly Cloudy
3:15 PM 64.4 °F - 48.2 °F 56% 30.09 in 6.2 mi NNW 3.5 mph - N/A   Scattered Clouds
3:45 PM 64.4 °F - 48.2 °F 56% 30.09 in 6.2 mi North 4.6 mph - N/A   Scattered Clouds
4:00 PM 65 °F - 49 °F 45% 30.08 in 12 mi North 4.5 mph - -   Partly Cloudy
4:15 PM 66.2 °F - 48.2 °F 52% 30.09 in 6.2 mi NNE 5.8 mph - N/A   Scattered Clouds
4:45 PM 66.2 °F - 48.2 °F 52% 30.06 in 6.2 mi NNE 5.8 mph - N/A   Scattered Clouds
5:00 PM 65 °F - 47 °F 42% 30.07 in 12 mi NNE 6.7 mph - -   Partly Cloudy
5:15 PM 66.2 °F - 46.4 °F 49% 30.06 in 6.2 mi North 5.8 mph - N/A   Scattered Clouds
5:45 PM 64.4 °F - 48.2 °F 56% 30.06 in 6.2 mi North 6.9 mph - N/A   Partly Cloudy
6:00 PM 64 °F - 48 °F 45% 30.07 in 12 mi North 6.7 mph - -   Partly Cloudy
6:45 PM 62.6 °F - 48.2 °F 59% 30.09 in - NNE 6.9 mph - N/A   Clear
7:00 PM 62 °F - 48 °F 50% 30.08 in 9 mi NNE 6.7 mph - -   Partly Cloudy
7:15 PM 59.0 °F - 48.2 °F 67% 30.09 in - NNE 5.8 mph - N/A   Clear
7:45 PM 59.0 °F - 48.2 °F 67% 30.09 in - NE 3.5 mph - N/A   Clear
8:00 PM 59 °F - 47 °F 56% 30.09 in 7 mi NE 4.5 mph - -   Partly Cloudy
8:15 PM 57.2 °F - 46.4 °F 67% 30.09 in - NE 3.5 mph - N/A   Clear
8:45 PM 53.6 °F - 46.4 °F 77% 30.09 in - NE 3.5 mph - N/A   Clear
9:00 PM 53 °F - 46 °F 69% 30.10 in 11 mi NE 4.5 mph - -   Partly Cloudy
9:15 PM 51.8 °F - 46.4 °F 82% 30.09 in - NE 1.2 mph - N/A   Clear
9:45 PM 51.8 °F - 46.4 °F 82% 30.09 in - NE 3.5 mph - N/A   Clear
10:00 PM 51 °F - 46 °F 78% 30.11 in 12 mi NE 2.2 mph - -   Partly Cloudy
10:45 PM 46.4 °F - 42.8 °F 87% 30.09 in - Calm Calm - N/A   Clear
11:00 PM 46 °F - 43 °F 86% 30.11 in 9 mi Calm Calm - -   Partly Cloudy
11:45 PM 46.4 °F - 42.8 °F 87% 30.09 in 0.2 mi West 1.2 mph - N/A Fog Patches of Fog
11:48 PM 46.4 °F - 42.8 °F 87% 30.12 in 0.2 mi Calm Calm - N/A Fog Patches of Fog